User: anonymous   Login
Location: Hopewell Observatory
(38.8698°N, 77.6988°W)
Time: 18:29:13
(UTC-04:00)
Language:

Cosmos 1544 - Orbit

View from above orbital plane
View from above orbital plane
View from above satellite
View from above satellite

Ground track
Ground track

The orbit data is extracted from the following two-line orbital elements,

1 14819U 84027A   19108.95430447  .00001005  00000-0  36222-4 0  9994
2 14819  82.4830  72.7691 0013272 190.6744 169.4215 15.27275098918145
Epoch (UTC): 18 April 2019 22:54:11
Eccentricity: 0.0013272
inclination: 82.4830°
perigee height: 475 km
apogee height: 493 km
right ascension of ascending node: 72.7691°
argument of perigee: 190.6744°
revolutions per day: 15.27275098
mean anomaly at epoch: 169.4215°
orbit number at epoch: 91814

The dashed part of the orbit path shows where the satellite is in the earth's shadow,  

DLR